Weather in Vyshmanovo

Russia / Vladimir Oblast     55°59′47″N   40°12′40″E
temp.,
°C
wind,
m/s
gust,
m/s
humid.,
%
clouds,
%
prec.,
mm/h
press.,
hPa
HPBL,
m
27 september, mon
mon2700:00+8nne4995100 0.1 1013425
03:00+8n4109386 0.2 1015450
06:00+8n51093100 0.1 1017446
09:00+9n51093100 0.1 1018682
12:00+9n488997 0.3 1019739
15:00+9nne51088100 0.4 1020828
18:00+8n51092100 0.3 1021765
21:00+8ne5992100 1.3 1023934
28 september, tue
tue2800:00+6ene5989100 0.4 1025897
03:00+5ne4990100 0.4 1026764
06:00+5ne4991100 0.0 1028698
09:00+6ene588592 0.1 1030878
12:00+8ene466539 0.0 10311016
15:00+10ne455183 0.0 10311172
18:00+6ne34685 0.0 103366
21:00+4ne24775 0.0 103460
29 september, wed
wed2900:00+3nne22812 0.0 103519
03:00+2n22840 0.0 103521
06:00+2n23875 0.0 103547
09:00+6nne35705 0.0 1035308
12:00+10nne34575 0.0 1035874
15:00+11nne335523 0.0 10341175
18:00+8nne237197 0.0 103451
21:00+8nne2474100 0.0 1035110
30 september, thu
thu3000:00+7nne2278100 0.0 103567
03:00+7nne1175100 0.0 103514
06:00+8nnw1173100 0.0 103623
09:00+9nw127277 0.0 1036147
12:00+12wnw225834 0.0 10351023
15:00+12wnw2362100 0.0 10351020
18:00+10wnw247684 0.0 1035101
21:00+9wnw2383100 0.0 103589
1 october, fri
fri100:00+9wnw248399 0.0 1035112
03:00+9wnw2485100 0.0 1035122
06:00+9wnw2585100 0.0 1035149
09:00+10wnw2481100 0.0 1035214
12:00+13wnw226785 0.0 1035654
15:00+14wnw226230 0.0 10351012
18:00+10wnw12805 0.0 103411
21:00+8wsw12835 0.0 103510